VIS870 ZYTL-ZSPD

Flight info

Callsign VIS870
Flight time 1h 45m
Altitude 40100
Route KAR09D KARPI W5 TAO W174 XDX DCT MABEB DCT GURIL DCT RUXEL W178 OSIKI/K0930S1250 W166 ZJ W167 SASAN R343 EKIMU
Aircraft B748/H-SDE3FGHIM1M2RWXY/LB1

Departure

Time 2026-04-30 06:08
Airport Dalian Zhoushuizi International Airport (ZYTL)

Arrival

Time 2026-04-30 07:53
Airport Shanghai Pudong International Airport (ZSPD)
Time Latitude Longitude Altitude Speed Heading
2026-04-30 05:33 38.96378 121.53050 113 ft 0 kts 101°
2026-04-30 05:57 38.96378 121.53051 113 ft 1 kts 101°
2026-04-30 05:57 38.96377 121.53055 113 ft 0 kts 105°
2026-04-30 05:58 38.96381 121.53035 112 ft 2 kts 105°
2026-04-30 05:58 38.96385 121.53014 108 ft 2 kts 105°
2026-04-30 05:59 38.96390 121.52993 108 ft 2 kts 105°
2026-04-30 05:59 38.96394 121.52973 108 ft 2 kts 105°
2026-04-30 05:59 38.96399 121.52952 108 ft 2 kts 105°
2026-04-30 05:59 38.96403 121.52931 109 ft 2 kts 105°
2026-04-30 06:00 38.96408 121.52910 109 ft 2 kts 105°
2026-04-30 06:00 38.96412 121.52889 117 ft 2 kts 105°
2026-04-30 06:00 38.96416 121.52869 114 ft 2 kts 105°
2026-04-30 06:00 38.96421 121.52848 109 ft 2 kts 105°
2026-04-30 06:01 38.96426 121.52826 109 ft 2 kts 110°
2026-04-30 06:01 38.96431 121.52803 109 ft 3 kts 85°
2026-04-30 06:01 38.96427 121.52779 109 ft 3 kts 54°
2026-04-30 06:01 38.96413 121.52760 108 ft 3 kts 23°
2026-04-30 06:02 38.96395 121.52754 109 ft 3 kts 352°
2026-04-30 06:02 38.96383 121.52756 108 ft 0 kts 329°
2026-04-30 06:03 38.96403 121.52741 108 ft 6 kts 329°
2026-04-30 06:03 38.96441 121.52714 112 ft 4 kts 328°
2026-04-30 06:03 38.96457 121.52687 111 ft 9 kts 299°
2026-04-30 06:04 38.96477 121.52561 110 ft 16 kts 277°
2026-04-30 06:04 38.96487 121.52419 110 ft 16 kts 274°
2026-04-30 06:04 38.96498 121.52283 111 ft 15 kts 277°
2026-04-30 06:05 38.96546 121.52068 110 ft 9 kts 305°
2026-04-30 06:05 38.96582 121.52002 110 ft 9 kts 305°
2026-04-30 06:05 38.96592 121.51988 110 ft 0 kts 320°
2026-04-30 06:06 38.96603 121.51979 111 ft 3 kts 329°
2026-04-30 06:06 38.96628 121.51970 112 ft 4 kts 352°
2026-04-30 06:06 38.96662 121.51977 111 ft 6 kts 19°
2026-04-30 06:07 38.96704 121.52005 111 ft 5 kts 40°
2026-04-30 06:07 38.96710 121.52019 112 ft 1 kts 65°
2026-04-30 06:07 38.96710 121.52028 111 ft 5 kts 82°
2026-04-30 06:07 38.96675 121.52501 113 ft 106 kts 96°
2026-04-30 06:08 38.96570 121.53830 144 ft 192 kts 96°
2026-04-30 06:08 38.96449 121.55666 841 ft 210 kts 96°
2026-04-30 06:08 38.96380 121.57508 2011 ft 204 kts 94°
2026-04-30 06:08 38.96295 121.59357 2941 ft 211 kts 94°
2026-04-30 06:09 38.96177 121.61279 3805 ft 219 kts 95°
2026-04-30 06:09 38.96070 121.63265 4616 ft 229 kts 93°
2026-04-30 06:09 38.95936 121.65396 5165 ft 250 kts 95°
2026-04-30 06:09 38.95733 121.67708 5667 ft 270 kts 96°
2026-04-30 06:10 38.95466 121.70163 6207 ft 287 kts 98°
2026-04-30 06:10 38.95155 121.72775 6906 ft 313 kts 97°
2026-04-30 06:10 38.95093 121.75612 8102 ft 319 kts 74°
2026-04-30 06:10 38.96113 121.78170 9268 ft 333 kts 48°
2026-04-30 06:11 38.97913 121.80104 10374 ft 346 kts 26°
2026-04-30 06:11 39.00251 121.80984 11490 ft 359 kts
2026-04-30 06:11 39.02775 121.80611 12372 ft 381 kts 333°
2026-04-30 06:11 39.04846 121.78269 11963 ft 433 kts 300°
2026-04-30 06:12 39.05860 121.74280 10000 ft 515 kts 274°
2026-04-30 06:12 39.05587 121.69564 8834 ft 524 kts 261°
2026-04-30 06:12 39.04967 121.65137 10814 ft 510 kts 261°
2026-04-30 06:12 39.04255 121.60646 12332 ft 508 kts 259°
2026-04-30 06:13 39.03570 121.56312 14911 ft 478 kts 259°
2026-04-30 06:13 39.02583 121.52453 18006 ft 439 kts 232°
2026-04-30 06:13 39.00520 121.49850 20001 ft 401 kts 193°
2026-04-30 06:13 38.97886 121.48952 21131 ft 393 kts 192°
2026-04-30 06:14 38.95294 121.47824 22214 ft 389 kts 202°
2026-04-30 06:14 38.92852 121.46467 23663 ft 376 kts 199°
2026-04-30 06:14 38.90421 121.45274 24461 ft 378 kts 194°
2026-04-30 06:14 38.87883 121.44203 24639 ft 397 kts 201°
2026-04-30 06:15 38.85361 121.42688 25291 ft 399 kts 208°
2026-04-30 06:15 38.82970 121.41072 26700 ft 375 kts 211°
2026-04-30 06:15 38.80870 121.39349 28417 ft 344 kts 219°
2026-04-30 06:15 38.78875 121.37677 28879 ft 352 kts 198°
2026-04-30 06:16 38.76460 121.36932 28805 ft 365 kts 177°
2026-04-30 06:16 38.73889 121.37205 28811 ft 381 kts 173°
2026-04-30 06:16 38.71161 121.36978 28835 ft 407 kts 191°
2026-04-30 06:16 38.68397 121.35828 28858 ft 430 kts 200°
2026-04-30 06:17 38.65635 121.34244 28849 ft 451 kts 204°
2026-04-30 06:17 38.62758 121.32414 28833 ft 473 kts 205°
2026-04-30 06:17 38.59770 121.30440 28800 ft 493 kts 206°
2026-04-30 06:17 38.56671 121.28366 28764 ft 514 kts 206°
2026-04-30 06:18 38.53445 121.26199 28719 ft 534 kts 206°
2026-04-30 06:18 38.51242 121.24719 28668 ft 547 kts 206°
2026-04-30 06:18 38.46658 121.21645 28595 ft 560 kts 207°
2026-04-30 06:19 38.41337 121.16965 28463 ft 562 kts 223°
2026-04-30 06:19 38.37778 121.12174 28320 ft 563 kts 229°
2026-04-30 06:19 38.35288 121.08323 28203 ft 563 kts 232°
2026-04-30 06:20 38.31264 121.01711 28002 ft 564 kts 233°
2026-04-30 06:20 38.28125 120.96424 27831 ft 566 kts 233°
2026-04-30 06:20 38.26569 120.93787 27748 ft 566 kts 233°
2026-04-30 06:20 38.24199 120.89766 27622 ft 567 kts 233°
2026-04-30 06:21 38.21837 120.85759 27496 ft 567 kts 234°
2026-04-30 06:21 38.19470 120.81745 27371 ft 567 kts 234°
2026-04-30 06:21 38.16340 120.76440 27200 ft 567 kts 234°
2026-04-30 06:21 38.14736 120.73725 27111 ft 567 kts 234°
2026-04-30 06:22 38.11595 120.68422 26950 ft 568 kts 234°
2026-04-30 06:22 38.08928 120.64753 26964 ft 569 kts 219°
2026-04-30 06:22 38.06717 120.62976 26828 ft 569 kts 206°
2026-04-30 06:22 38.02970 120.61402 26641 ft 567 kts 189°
2026-04-30 06:23 37.99084 120.60939 27222 ft 556 kts 178°
2026-04-30 06:23 37.95309 120.61227 29354 ft 521 kts 171°
2026-04-30 06:23 37.92048 120.61835 33262 ft 414 kts 169°
2026-04-30 06:23 37.89781 120.62315 38335 ft 251 kts 174°
2026-04-30 06:24 37.88252 120.62703 40563 ft 221 kts 165°
2026-04-30 06:24 37.86605 120.63270 38395 ft 289 kts 171°
2026-04-30 06:24 37.84166 120.63850 35022 ft 426 kts 171°
2026-04-30 06:24 37.81105 120.64539 34368 ft 463 kts 170°
2026-04-30 06:25 37.77793 120.65240 33240 ft 505 kts 171°
2026-04-30 06:25 37.74165 120.65916 31874 ft 548 kts 171°
2026-04-30 06:25 37.70336 120.66373 31501 ft 552 kts 176°
2026-04-30 06:25 37.66498 120.66480 31399 ft 552 kts 179°
2026-04-30 06:26 37.62651 120.66426 31304 ft 552 kts 181°
2026-04-30 06:26 37.58813 120.66296 31194 ft 552 kts 181°
2026-04-30 06:26 37.55020 120.66132 31090 ft 552 kts 182°
2026-04-30 06:26 37.51184 120.65948 30971 ft 553 kts 182°
2026-04-30 06:27 37.47335 120.65757 30858 ft 553 kts 182°
2026-04-30 06:27 37.43490 120.65564 30750 ft 553 kts 182°
2026-04-30 06:27 37.39646 120.65370 30632 ft 553 kts 182°
2026-04-30 06:27 37.35802 120.65175 30517 ft 553 kts 182°
2026-04-30 06:28 37.31967 120.64983 30405 ft 553 kts 182°
2026-04-30 06:28 37.28116 120.64793 30289 ft 553 kts 182°
2026-04-30 06:28 37.24271 120.64562 30180 ft 553 kts 184°
2026-04-30 06:28 37.20493 120.64167 30063 ft 554 kts 186°
2026-04-30 06:29 37.16644 120.63669 29932 ft 553 kts 186°
2026-04-30 06:29 37.12821 120.63131 29790 ft 553 kts 187°
2026-04-30 06:29 37.09005 120.62572 29657 ft 553 kts 187°
2026-04-30 06:29 37.05199 120.62009 30174 ft 546 kts 187°
2026-04-30 06:30 37.01442 120.61455 30877 ft 543 kts 187°
2026-04-30 06:30 36.97694 120.60912 31595 ft 540 kts 187°
2026-04-30 06:30 36.93965 120.60385 32334 ft 538 kts 187°
2026-04-30 06:30 36.90250 120.59876 33078 ft 536 kts 187°
2026-04-30 06:31 36.86547 120.59385 33854 ft 534 kts 187°
2026-04-30 06:31 36.82904 120.58918 34513 ft 533 kts 187°
2026-04-30 06:31 36.79244 120.58466 35171 ft 518 kts 187°
2026-04-30 06:31 36.75753 120.58056 35803 ft 489 kts 187°
2026-04-30 06:32 36.72831 120.57730 36368 ft 473 kts 187°
2026-04-30 06:32 36.69569 120.57381 37038 ft 467 kts 187°
2026-04-30 06:32 36.66356 120.57053 37735 ft 460 kts 187°
2026-04-30 06:32 36.63189 120.56744 38460 ft 452 kts 187°
2026-04-30 06:33 36.60087 120.56457 39079 ft 443 kts 187°
2026-04-30 06:33 36.57044 120.56188 39677 ft 433 kts 187°
2026-04-30 06:33 36.54087 120.55897 40283 ft 420 kts 189°
2026-04-30 06:33 36.51211 120.55512 40772 ft 412 kts 190°
2026-04-30 06:34 36.48417 120.55090 40984 ft 410 kts 191°
2026-04-30 06:34 36.42686 120.54163 40986 ft 420 kts 191°
2026-04-30 06:35 36.36830 120.53187 41008 ft 430 kts 191°
2026-04-30 06:35 36.30827 120.52176 41020 ft 441 kts 191°
2026-04-30 06:36 36.24704 120.51137 41021 ft 453 kts 191°
2026-04-30 06:36 36.18380 120.50057 41031 ft 465 kts 191°
2026-04-30 06:37 36.11878 120.48942 41027 ft 478 kts 191°
2026-04-30 06:37 36.05197 120.47791 41033 ft 488 kts 191°
2026-04-30 06:38 35.98548 120.46428 40996 ft 485 kts 200°
2026-04-30 06:38 35.92161 120.43835 40997 ft 482 kts 205°
2026-04-30 06:39 35.86593 120.39579 41088 ft 468 kts 225°
2026-04-30 06:39 35.81520 120.34443 41045 ft 474 kts 217°
2026-04-30 06:40 35.76613 120.29211 40976 ft 466 kts 238°
2026-04-30 06:40 35.75370 120.25589 41134 ft 459 kts 251°
2026-04-30 06:40 35.74359 120.21835 41046 ft 464 kts 259°
2026-04-30 06:41 35.74275 120.13971 41006 ft 463 kts 277°
2026-04-30 06:41 35.74909 120.10112 41120 ft 460 kts 276°
2026-04-30 06:41 35.75015 120.06171 41110 ft 462 kts 263°
2026-04-30 06:41 35.74388 120.02289 41126 ft 464 kts 252°
2026-04-30 06:42 35.73111 119.98693 41107 ft 468 kts 240°
2026-04-30 06:42 35.71199 119.95449 41092 ft 472 kts 229°
2026-04-30 06:42 35.68738 119.92759 41070 ft 477 kts 217°
2026-04-30 06:42 35.65834 119.90749 41065 ft 483 kts 204°
2026-04-30 06:43 35.62665 119.89340 41021 ft 486 kts 199°
2026-04-30 06:43 35.56219 119.86838 41028 ft 486 kts 202°
2026-04-30 06:44 35.50129 119.83618 40940 ft 473 kts 225°
2026-04-30 06:44 35.47516 119.81171 41042 ft 477 kts 217°
2026-04-30 06:44 35.44782 119.78864 41039 ft 477 kts 218°
2026-04-30 06:45 35.39398 119.74130 41033 ft 476 kts 219°
2026-04-30 06:45 35.34051 119.69346 41027 ft 476 kts 220°
2026-04-30 06:46 35.28714 119.64556 41034 ft 476 kts 220°
2026-04-30 06:46 35.23413 119.59801 41033 ft 475 kts 220°
2026-04-30 06:47 35.18083 119.55024 41032 ft 475 kts 220°
2026-04-30 06:47 35.12754 119.50257 41026 ft 474 kts 220°
2026-04-30 06:48 35.07425 119.45501 41022 ft 474 kts 220°
2026-04-30 06:48 35.02132 119.40787 41021 ft 474 kts 220°
2026-04-30 06:49 34.96810 119.36055 41022 ft 474 kts 220°
2026-04-30 06:49 34.91484 119.31329 41022 ft 473 kts 220°
2026-04-30 06:50 34.86153 119.26611 41021 ft 474 kts 220°
2026-04-30 06:50 34.80821 119.21902 41023 ft 473 kts 220°
2026-04-30 06:51 34.75518 119.17229 41018 ft 474 kts 220°
2026-04-30 06:51 34.70178 119.12532 41020 ft 474 kts 220°
2026-04-30 06:52 34.64835 119.07845 41023 ft 474 kts 220°
2026-04-30 06:52 34.59490 119.03163 41022 ft 474 kts 220°
2026-04-30 06:53 34.54180 118.98521 41026 ft 473 kts 220°
2026-04-30 06:53 34.48836 118.93860 41022 ft 473 kts 220°
2026-04-30 06:54 34.43493 118.89214 41021 ft 472 kts 220°
2026-04-30 06:54 34.38048 118.84744 41059 ft 477 kts 210°
2026-04-30 06:54 34.34957 118.83293 41062 ft 488 kts 199°
2026-04-30 06:55 34.31614 118.82466 41043 ft 493 kts 193°
2026-04-30 06:55 34.24732 118.81673 40517 ft 504 kts 189°
2026-04-30 06:55 34.21214 118.81439 39847 ft 508 kts 188°
2026-04-30 06:56 34.17671 118.81253 39195 ft 511 kts 188°
2026-04-30 06:56 34.14113 118.81096 38535 ft 513 kts 187°
2026-04-30 06:56 34.10537 118.80957 37773 ft 515 kts 187°
2026-04-30 06:56 34.07004 118.80826 37043 ft 516 kts 187°
2026-04-30 06:57 34.03413 118.80691 36327 ft 517 kts 187°
2026-04-30 06:57 33.99816 118.80551 35630 ft 517 kts 187°
2026-04-30 06:57 33.96221 118.80403 34957 ft 518 kts 187°
2026-04-30 06:57 33.92620 118.80245 34295 ft 518 kts 187°
2026-04-30 06:58 33.89019 118.80077 33568 ft 518 kts 187°
2026-04-30 06:58 33.85416 118.79903 32810 ft 518 kts 187°
2026-04-30 06:58 33.81819 118.79730 32069 ft 517 kts 187°
2026-04-30 06:58 33.78226 118.79559 31354 ft 516 kts 187°
2026-04-30 06:59 33.74690 118.79396 30662 ft 515 kts 187°
2026-04-30 06:59 33.71111 118.79238 29942 ft 514 kts 187°
2026-04-30 06:59 33.67543 118.79085 29115 ft 512 kts 187°
2026-04-30 06:59 33.63988 118.78931 28317 ft 510 kts 187°
2026-04-30 07:00 33.60457 118.78776 27801 ft 503 kts 187°
2026-04-30 07:00 33.57025 118.78629 27758 ft 485 kts 187°
2026-04-30 07:00 33.53706 118.78499 27753 ft 468 kts 187°
2026-04-30 07:00 33.50507 118.78389 27751 ft 452 kts 187°
2026-04-30 07:01 33.47408 118.78298 27752 ft 438 kts 187°
2026-04-30 07:01 33.44449 118.78225 27749 ft 425 kts 187°
2026-04-30 07:01 33.41490 118.78159 27763 ft 431 kts 187°
2026-04-30 07:01 33.38437 118.78081 27777 ft 447 kts 187°
2026-04-30 07:02 33.35276 118.77989 27790 ft 463 kts 187°
2026-04-30 07:02 33.31999 118.77882 27795 ft 478 kts 187°
2026-04-30 07:02 33.28625 118.77763 27789 ft 493 kts 187°
2026-04-30 07:02 33.25152 118.77631 27792 ft 507 kts 187°
2026-04-30 07:03 33.21574 118.77486 27793 ft 521 kts 187°
2026-04-30 07:03 33.17938 118.77501 27802 ft 541 kts 180°
2026-04-30 07:03 33.14162 118.78293 27805 ft 562 kts 169°
2026-04-30 07:03 33.10425 118.79922 27799 ft 582 kts 158°
2026-04-30 07:04 33.06849 118.82243 27796 ft 588 kts 152°
2026-04-30 07:04 33.03414 118.84907 27793 ft 590 kts 149°
2026-04-30 07:04 33.00065 118.87729 27798 ft 590 kts 147°
2026-04-30 07:04 32.96762 118.90630 27791 ft 590 kts 146°
2026-04-30 07:05 32.90217 118.96546 27795 ft 590 kts 146°
2026-04-30 07:05 32.87009 118.99489 27795 ft 590 kts 146°
2026-04-30 07:05 32.83764 119.02484 27793 ft 590 kts 146°
2026-04-30 07:06 32.80528 119.05483 27527 ft 592 kts 146°
2026-04-30 07:06 32.77295 119.08490 26749 ft 585 kts 146°
2026-04-30 07:06 32.74117 119.11458 25991 ft 577 kts 146°
2026-04-30 07:06 32.70987 119.14390 25252 ft 569 kts 146°
2026-04-30 07:07 32.67906 119.17284 24536 ft 561 kts 146°
2026-04-30 07:07 32.64874 119.20141 23854 ft 553 kts 146°
2026-04-30 07:07 32.61881 119.22969 23050 ft 546 kts 145°
2026-04-30 07:07 32.58974 119.25711 22224 ft 538 kts 145°
2026-04-30 07:08 32.56057 119.28446 21434 ft 530 kts 145°
2026-04-30 07:08 32.53178 119.31125 20664 ft 523 kts 145°
2026-04-30 07:08 32.50328 119.33752 20015 ft 514 kts 145°
2026-04-30 07:08 32.47539 119.36303 19777 ft 496 kts 145°
2026-04-30 07:09 32.44867 119.38744 19775 ft 475 kts 146°
2026-04-30 07:09 32.42307 119.41088 19772 ft 456 kts 146°
2026-04-30 07:09 32.39849 119.43352 19772 ft 439 kts 146°
2026-04-30 07:09 32.37519 119.45512 19769 ft 424 kts 146°
2026-04-30 07:10 32.35248 119.47633 19768 ft 409 kts 146°
2026-04-30 07:10 32.33058 119.49693 19769 ft 396 kts 146°
2026-04-30 07:10 32.30917 119.51719 19779 ft 396 kts 146°
2026-04-30 07:10 32.28768 119.53754 19781 ft 396 kts 146°
2026-04-30 07:11 32.26620 119.55792 19778 ft 396 kts 146°
2026-04-30 07:11 32.24473 119.57834 19777 ft 396 kts 146°
2026-04-30 07:11 32.22329 119.59876 19778 ft 396 kts 146°
2026-04-30 07:11 32.20185 119.61925 19784 ft 396 kts 146°
2026-04-30 07:12 32.18063 119.63934 19781 ft 396 kts 148°
2026-04-30 07:12 32.15796 119.65739 19799 ft 391 kts 155°
2026-04-30 07:12 32.13420 119.67287 19795 ft 388 kts 160°
2026-04-30 07:12 32.10969 119.68599 19799 ft 386 kts 164°
2026-04-30 07:13 32.08488 119.69798 19797 ft 385 kts 165°
2026-04-30 07:13 32.05987 119.70915 19793 ft 382 kts 169°
2026-04-30 07:13 32.03438 119.71682 19803 ft 376 kts 177°
2026-04-30 07:13 32.00867 119.72205 19801 ft 374 kts 179°
2026-04-30 07:14 31.98331 119.72641 19798 ft 374 kts 180°
2026-04-30 07:14 31.95754 119.73058 19802 ft 374 kts 180°
2026-04-30 07:14 31.93209 119.73853 19815 ft 387 kts 162°
2026-04-30 07:14 31.90880 119.75523 19814 ft 399 kts 146°
2026-04-30 07:15 31.88788 119.77698 19809 ft 403 kts 141°
2026-04-30 07:15 31.86799 119.80032 19809 ft 404 kts 139°
2026-04-30 07:15 31.84873 119.82441 19808 ft 405 kts 136°
2026-04-30 07:15 31.83019 119.84944 19811 ft 406 kts 134°
2026-04-30 07:16 31.81219 119.87450 19811 ft 407 kts 134°
2026-04-30 07:16 31.79408 119.90000 19811 ft 407 kts 134°
2026-04-30 07:16 31.77601 119.92557 19814 ft 407 kts 134°
2026-04-30 07:16 31.75795 119.95119 19814 ft 407 kts 134°
2026-04-30 07:17 31.73992 119.97682 19812 ft 407 kts 134°
2026-04-30 07:17 31.72194 120.00244 19812 ft 407 kts 134°
2026-04-30 07:17 31.69074 120.05797 19812 ft 413 kts 115°
2026-04-30 07:18 31.68007 120.08932 19816 ft 414 kts 111°
2026-04-30 07:18 31.67054 120.12073 19818 ft 414 kts 110°
2026-04-30 07:18 31.66125 120.15274 19810 ft 414 kts 110°
2026-04-30 07:18 31.65211 120.18478 19816 ft 414 kts 110°
2026-04-30 07:19 31.64302 120.21693 19811 ft 414 kts 110°
2026-04-30 07:19 31.63400 120.24903 19813 ft 415 kts 110°
2026-04-30 07:19 31.62501 120.28116 19811 ft 415 kts 110°
2026-04-30 07:19 31.61549 120.31304 19813 ft 413 kts 115°
2026-04-30 07:20 31.60309 120.34332 19812 ft 411 kts 124°
2026-04-30 07:20 31.58774 120.37087 19814 ft 408 kts 130°
2026-04-30 07:20 31.57236 120.39887 19828 ft 412 kts 119°
2026-04-30 07:20 31.56098 120.42980 19825 ft 414 kts 113°
2026-04-30 07:21 31.55117 120.46192 19375 ft 422 kts 111°
2026-04-30 07:21 31.54184 120.49468 18823 ft 426 kts 110°
2026-04-30 07:21 31.53260 120.52773 18269 ft 428 kts 109°
2026-04-30 07:21 31.52330 120.56101 17646 ft 430 kts 109°
2026-04-30 07:22 31.50467 120.62733 16460 ft 432 kts 109°
2026-04-30 07:22 31.49526 120.66070 15873 ft 432 kts 109°
2026-04-30 07:22 31.48522 120.69382 15298 ft 431 kts 113°
2026-04-30 07:23 31.47330 120.72593 14738 ft 429 kts 117°
2026-04-30 07:23 31.46041 120.75743 14187 ft 428 kts 115°
2026-04-30 07:23 31.44923 120.78973 13593 ft 427 kts 111°
2026-04-30 07:23 31.43905 120.82234 12979 ft 426 kts 110°
2026-04-30 07:24 31.42920 120.85488 12369 ft 424 kts 109°
2026-04-30 07:24 31.41943 120.88731 11778 ft 421 kts 109°
2026-04-30 07:24 31.40964 120.91958 11200 ft 419 kts 109°
2026-04-30 07:24 31.39996 120.95114 10630 ft 416 kts 109°
2026-04-30 07:25 31.39013 120.98287 10063 ft 413 kts 109°
2026-04-30 07:25 31.38026 121.01432 9443 ft 410 kts 109°
2026-04-30 07:25 31.37038 121.04550 8828 ft 407 kts 109°
2026-04-30 07:25 31.36054 121.07634 8225 ft 403 kts 109°
2026-04-30 07:26 31.35073 121.10674 7845 ft 394 kts 109°
2026-04-30 07:26 31.34119 121.13609 7812 ft 377 kts 109°
2026-04-30 07:26 31.33202 121.16406 7797 ft 361 kts 111°
2026-04-30 07:26 31.32054 121.18945 7799 ft 346 kts 124°
2026-04-30 07:27 31.30645 121.21162 7792 ft 334 kts 128°
2026-04-30 07:27 31.29170 121.23150 7786 ft 322 kts 133°
2026-04-30 07:27 31.27531 121.24844 7666 ft 307 kts 158°
2026-04-30 07:27 31.25704 121.25725 7530 ft 273 kts 182°
2026-04-30 07:28 31.23798 121.25979 7328 ft 274 kts 187°
2026-04-30 07:28 31.21911 121.25883 7103 ft 270 kts 186°
2026-04-30 07:28 31.20051 121.25898 7033 ft 263 kts 161°
2026-04-30 07:28 31.18311 121.26309 6886 ft 253 kts 164°
2026-04-30 07:29 31.16677 121.27025 6674 ft 248 kts 155°
2026-04-30 07:29 31.15181 121.27959 6727 ft 244 kts 148°
2026-04-30 07:29 31.13767 121.29057 6917 ft 249 kts 142°
2026-04-30 07:29 31.12678 121.30600 7175 ft 247 kts 115°
2026-04-30 07:30 31.12008 121.34510 7548 ft 250 kts 84°
2026-04-30 07:30 31.12232 121.36540 7532 ft 262 kts 78°
2026-04-30 07:30 31.12474 121.38759 7172 ft 289 kts 91°
2026-04-30 07:31 31.12553 121.41198 6921 ft 310 kts 87°
2026-04-30 07:31 31.12554 121.43766 6918 ft 320 kts 90°
2026-04-30 07:31 31.12509 121.46366 7138 ft 321 kts 91°
2026-04-30 07:31 31.12369 121.48881 7294 ft 306 kts 90°
2026-04-30 07:32 31.12289 121.51301 7326 ft 294 kts 87°
2026-04-30 07:32 31.12349 121.53668 7160 ft 291 kts 84°
2026-04-30 07:32 31.12505 121.56047 6744 ft 297 kts 82°
2026-04-30 07:32 31.12738 121.58487 6199 ft 307 kts 80°
2026-04-30 07:33 31.12940 121.61003 5720 ft 313 kts 87°
2026-04-30 07:33 31.12918 121.63496 5809 ft 297 kts 94°
2026-04-30 07:33 31.12805 121.65805 6120 ft 277 kts 91°
2026-04-30 07:33 31.12695 121.67964 6236 ft 263 kts 90°
2026-04-30 07:34 31.12546 121.70050 6306 ft 252 kts 92°
2026-04-30 07:34 31.12422 121.72050 6370 ft 242 kts 91°
2026-04-30 07:34 31.12304 121.74006 6446 ft 244 kts 91°
2026-04-30 07:34 31.12190 121.75968 6522 ft 243 kts 91°
2026-04-30 07:35 31.12079 121.77942 6613 ft 244 kts 90°
2026-04-30 07:35 31.11975 121.79918 6731 ft 245 kts 90°
2026-04-30 07:35 31.11872 121.81909 6841 ft 246 kts 90°
2026-04-30 07:35 31.11769 121.83911 6964 ft 247 kts 90°
2026-04-30 07:36 31.11662 121.85894 7076 ft 249 kts 90°
2026-04-30 07:36 31.11550 121.87915 7111 ft 250 kts 90°
2026-04-30 07:36 31.11439 121.89944 7119 ft 257 kts 91°
2026-04-30 07:36 31.11322 121.92238 7149 ft 311 kts 91°
2026-04-30 07:37 31.11187 121.94986 7288 ft 365 kts 92°
2026-04-30 07:37 31.10681 121.97977 8334 ft 385 kts 111°
2026-04-30 07:37 31.09453 122.00796 9751 ft 398 kts 128°
2026-04-30 07:37 31.07533 122.03392 9259 ft 459 kts 144°
2026-04-30 07:38 31.04680 122.05525 8669 ft 515 kts 155°
2026-04-30 07:38 31.01309 122.07333 8698 ft 542 kts 160°
2026-04-30 07:38 30.97801 122.08935 9549 ft 541 kts 163°
2026-04-30 07:38 30.94247 122.10361 9790 ft 556 kts 164°
2026-04-30 07:39 30.90582 122.11808 9054 ft 554 kts 164°
2026-04-30 07:39 30.86937 122.13183 8942 ft 547 kts 165°
2026-04-30 07:39 30.83323 122.14503 9621 ft 545 kts 166°
2026-04-30 07:39 30.79663 122.15674 10571 ft 546 kts 170°
2026-04-30 07:40 30.75921 122.16700 10601 ft 558 kts 171°
2026-04-30 07:40 30.72125 122.17694 8770 ft 556 kts 171°
2026-04-30 07:40 30.68422 122.18561 6816 ft 545 kts 172°
2026-04-30 07:40 30.64733 122.19145 6127 ft 520 kts 178°
2026-04-30 07:41 30.61274 122.18979 5947 ft 477 kts 195°
2026-04-30 07:41 30.58374 122.17677 6336 ft 422 kts 221°
2026-04-30 07:41 30.56494 122.15339 6179 ft 384 kts 248°
2026-04-30 07:41 30.55673 122.12433 4676 ft 382 kts 271°
2026-04-30 07:42 30.56404 122.09594 4336 ft 352 kts 320°
2026-04-30 07:42 30.58290 122.08769 6164 ft 264 kts 350°
2026-04-30 07:42 30.59989 122.08248 6150 ft 248 kts 327°
2026-04-30 07:42 30.61429 122.07217 5913 ft 243 kts 323°
2026-04-30 07:43 30.62783 122.06135 5812 ft 238 kts 325°
2026-04-30 07:43 30.64162 122.04948 5284 ft 254 kts 322°
2026-04-30 07:43 30.65575 122.03657 4825 ft 264 kts 321°
2026-04-30 07:43 30.67052 122.02297 4148 ft 278 kts 321°
2026-04-30 07:44 30.68556 122.00801 3515 ft 290 kts 320°
2026-04-30 07:44 30.70087 121.99368 3602 ft 273 kts 326°
2026-04-30 07:44 30.71644 121.98258 3803 ft 254 kts 337°
2026-04-30 07:44 30.73277 121.97626 3816 ft 243 kts 347°
2026-04-30 07:45 30.74888 121.97192 3869 ft 233 kts 345°
2026-04-30 07:45 30.76441 121.96717 3700 ft 232 kts 343°
2026-04-30 07:45 30.78007 121.96203 3246 ft 243 kts 344°
2026-04-30 07:45 30.79698 121.95668 2572 ft 261 kts 345°
2026-04-30 07:46 30.81478 121.95038 2003 ft 267 kts 339°
2026-04-30 07:46 30.83131 121.94292 1713 ft 239 kts 339°
2026-04-30 07:46 30.84557 121.93573 1448 ft 211 kts 338°
2026-04-30 07:46 30.85825 121.92960 1331 ft 184 kts 340°
2026-04-30 07:47 30.86953 121.92474 1178 ft 163 kts 343°
2026-04-30 07:47 30.87979 121.92067 1010 ft 148 kts 342°
2026-04-30 07:47 30.88950 121.91698 1040 ft 157 kts 342°
2026-04-30 07:47 30.89997 121.91293 1614 ft 159 kts 341°
2026-04-30 07:48 30.91041 121.90870 2111 ft 160 kts 341°
2026-04-30 07:48 30.92125 121.90443 2455 ft 170 kts 341°
2026-04-30 07:48 30.93264 121.89987 2820 ft 174 kts 340°
2026-04-30 07:48 30.94415 121.89522 3144 ft 179 kts 345°
2026-04-30 07:49 30.95654 121.89103 3251 ft 193 kts 342°
2026-04-30 07:49 30.96998 121.88643 2527 ft 200 kts 343°
2026-04-30 07:49 30.98282 121.88224 2028 ft 180 kts 345°
2026-04-30 07:49 30.99409 121.87842 1647 ft 164 kts 343°
2026-04-30 07:50 31.00477 121.87422 1234 ft 160 kts 340°
2026-04-30 07:50 31.01465 121.86974 1096 ft 146 kts 341°
2026-04-30 07:50 31.02464 121.86593 893 ft 168 kts 343°
2026-04-30 07:50 31.03627 121.86117 1181 ft 186 kts 343°
2026-04-30 07:51 31.04874 121.85684 1235 ft 189 kts 346°
2026-04-30 07:51 31.06207 121.85317 1033 ft 198 kts 343°
2026-04-30 07:51 31.07498 121.84807 946 ft 194 kts 340°
2026-04-30 07:51 31.08760 121.84301 782 ft 194 kts 346°
2026-04-30 07:52 31.09980 121.83883 531 ft 169 kts 343°
2026-04-30 07:52 31.11112 121.83457 410 ft 171 kts 340°
2026-04-30 07:52 31.12197 121.83037 173 ft 163 kts 344°
2026-04-30 07:52 31.13271 121.82643 31 ft 157 kts 343°
2026-04-30 07:53 31.14179 121.82303 27 ft 100 kts 342°
2026-04-30 07:53 31.14518 121.82176 27 ft 21 kts 341°
2026-04-30 07:53 31.14653 121.82117 27 ft 18 kts 325°
2026-04-30 07:53 31.14753 121.82000 29 ft 9 kts 312°
2026-04-30 07:54 31.14755 121.81998 29 ft 0 kts 312°
2026-04-30 07:54 31.14761 121.81990 28 ft 2 kts 313°
2026-04-30 07:54 31.14775 121.81972 30 ft 6 kts 313°
2026-04-30 07:54 31.14797 121.81924 29 ft 6 kts 280°
2026-04-30 07:55 31.14783 121.81886 31 ft 3 kts 227°
2026-04-30 07:55 31.14764 121.81880 29 ft 7 kts 187°
2026-04-30 07:55 31.14677 121.81905 26 ft 14 kts 160°
2026-04-30 07:55 31.14594 121.81931 26 ft 9 kts 158°
2026-04-30 07:56 31.14537 121.81959 29 ft 9 kts 158°
2026-04-30 07:56 31.14479 121.81987 26 ft 9 kts 158°
2026-04-30 07:56 31.14423 121.82012 27 ft 8 kts 164°
2026-04-30 07:56 31.14278 121.82058 27 ft 37 kts 164°
2026-04-30 07:57 31.14037 121.82149 28 ft 36 kts 162°
2026-04-30 07:57 31.13808 121.82236 27 ft 26 kts 162°
2026-04-30 07:57 31.13689 121.82267 27 ft 8 kts 195°
2026-04-30 07:57 31.13663 121.82234 27 ft 12 kts 248°
2026-04-30 07:58 31.13624 121.82078 27 ft 21 kts 255°
2026-04-30 07:58 31.13560 121.81857 26 ft 37 kts 252°
2026-04-30 07:58 31.13498 121.81627 27 ft 15 kts 262°
2026-04-30 07:58 31.13511 121.81560 27 ft 5 kts 302°
2026-04-30 07:59 31.13534 121.81535 27 ft 5 kts 330°
2026-04-30 07:59 31.13560 121.81523 27 ft 1 kts 335°
2026-04-30 07:59 31.13568 121.81513 27 ft 2 kts 309°
2026-04-30 08:00 31.13565 121.81478 27 ft 3 kts 255°
2026-04-30 08:00 31.13560 121.81456 27 ft 0 kts 255°